Current weather by "City, St" or "zip code"  
 

Current Conditions: Orlando Executive Airport, FL

Fair


83.0 F

Last Updated on Oct 29 2020, 8:53 pm EDT
Humidity: 70%
Wind Speed: SW 11.5 mph
Barometer 29.88 in
Dewpoint: 72.0 F
Visibility: 10.00 mi
Precip: --
Heat Index: 88 F
Wind Chill: NA
Current conditions at:

Orlando Executive Airport, FL (KORL)

Lat: 28.54655 Lon: 81.33543

Local Radar Image active severe weather and emergency alerts image image weather storm and storm spotter reports image weather observation monitoring service image
Local
Radar
Active
Alerts
Storm Reports Obs
Monitoring

Sign-up For Email & Text Message Weather Alert Notification Services



Advertise Here

Observation History for Orlando Executive Airport, FL


Time Wind
(mph)
Vis
(mi)
Weather Precip (in) Temperature (F) Relative
Humidity
Wind
Chill
(F)
Heat
Index
(F)
Pressure
Air Dwpt altimeter
(in)
sea level
(mb)
Rmks
8:53 pm EDT SW 11.5 10.00 Fair -- 83.0 72.0 70% NA 88 29.88 1012.2
7:53 pm EDT SW 13.8 10.00 Fair -- 84.0 71.1 65% NA 89 29.87 1011.7
6:53 pm EDT SW 12.7 10.00 Fair -- 86.0 69.1 57% NA 90 29.86 1011.2
5:53 pm EDT SW 12.7 10.00 A Few Clouds -- 88.0 71.1 57% NA 94 29.83 1010.3
4:53 pm EDT SW 12.7 10.00 Mostly Cloudy -- 89.0 73.0 59% NA 97 29.83 1010.2
3:53 pm EDT S 12.7 10.00 Mostly Cloudy -- 91.0 72.0 54% NA 98 29.83 1010.3
2:53 pm EDT SW 17.3 G 21.9 10.00 Partly Cloudy -- 91.0 73.0 56% NA 100 29.85 1011.0
1:53 pm EDT S 19.6 G 23.0 10.00 Mostly Cloudy -- 89.0 73.0 59% NA 97 29.88 1012.1
12:53 pm EDT S 18.4 G 23.0 10.00 Mostly Cloudy -- 88.0 73.0 61% NA 96 29.92 1013.3
11:53 am EDT S 15.0 10.00 Mostly Cloudy -- 86.0 73.9 67% NA 94 29.95 1014.4
10:53 am EDT S 13.8 10.00 Partly Cloudy -- 83.0 75.0 77% NA 90 29.97 1015.0
9:53 am EDT S 15.0 10.00 A Few Clouds -- 82.0 75.9 82% NA 89 29.97 1015.0
8:53 am EDT S 12.7 G 19.6 10.00 Overcast -- 78.0 75.9 93% NA NA 29.96 1014.7
7:53 am EDT S 9.2 9.00 Fair -- 77.0 75.0 94% NA NA 29.95 1014.3
6:53 am EDT S 6.9 10.00 Fair -- 77.0 75.0 94% NA NA 29.94 1014.2
5:53 am EDT S 6.9 10.00 Fair -- 77.0 75.0 94% NA NA 29.94 1014.2
4:53 am EDT S 5.8 10.00 Fair -- 77.0 73.9 90% NA NA 29.95 1014.4
3:53 am EDT S 5.8 10.00 Fair -- 77.0 75.0 94% NA NA 29.95 1014.4
1:53 am EDT SE 8.1 10.00 Fair -- 78.0 75.0 90% NA NA 29.98 1015.6
12:53 am EDT SE 9.2 10.00 Fair -- 78.0 75.0 90% NA NA 29.99 1015.7
11:53 pm EDT SE 10.4 10.00 Fair -- 79.0 75.0 88% NA NA 30.00 1015.9
10:53 pm EDT SE 10.4 10.00 Fair -- 79.0 75.0 88% NA NA 30.00 1016.1
9:53 pm EDT SE 11.5 10.00 Fair -- 79.0 75.0 88% NA NA 30.01 1016.3

Regional Weather Observation


Orlando / Sanford Airport, FL (KSFB)

Mostly Cloudy
83.0 F

Orlando Executive Airport, FL (KORL)

Fair
83.0 F

Orlando International Airport, FL (KMCO)

A Few Clouds
80.0 F

Kissimmee Gateway Airport, FL (KISM)

Fair
79.0 F

DeLand Municipal Airport, FL (KDED)

Overcast
82.0 F

Winter Havens Gilbert Airport, FL (KGIF)

Fair
80.0 F